Weather History for Jesup, GA

Change the Weather History Date:

Sunday, March 3, 2013

  Actual Average (KLHW) Record (KLHW)
Temperature  
Mean Temperature 35 °F -  
Max Temperature 42 °F 71 °F 88 °F (1976)
Min Temperature 28 °F 46 °F 19 °F (1980)
Degree Days  
Heating Degree Days 30    
Moisture  
Dew Point 30 °F    
Average Humidity 78    
Maximum Humidity 100    
Minimum Humidity 57    
Precipitation  
Precipitation 0.00 in - - ()
Sea Level Pressure  
Sea Level Pressure 30.04 in    
Wind  
Wind Speed 8 mph (NW)    
Max Wind Speed 18 mph    
Max Gust Speed 25 mph    
Visibility 10 miles    
Events      
Averages and records for this station are not official NWS values.
T = Trace of Precipitation, MM = Missing Value Source: NWS Daily Summary

Daily Weather History Graph

Daily Weather History Graph

Search for Another Location

Airport:

Trip Planner

Search our weather history database for the weather conditions in past years. The results will help you decide how hot, cold, wet, or windy it might be!

Date:

Astronomy

Mar. 03, 2013 Rise Set
Actual Time 6:51 AM EST 6:27 PM EST
Civil Twilight 6:27 AM EST 6:51 PM EST
Nautical Twilight 5:59 AM EST 7:19 PM EST
Astronomical Twilight 5:31 AM EST 7:48 PM EST
Moon No Moon Rise 10:30 AM EST (3/3)
Length of Visible Light 12h 24m
Length of Day
11h 35m
Waning Gibbous, 64% of the Moon is Illuminated
Mar 3
Waning Gibbous
Mar 4
Last Quarter
Mar 11
New
Mar 19
First Quarter
Mar 27
Full

Hourly Weather History & Observations

Time (EST) Temp. Windchill Dew Point Humidity Pressure Visibility Wind Dir Wind Speed Gust Speed Precip Events Conditions
12:15 AM 35.6 °F 31.7 °F 32.0 °F 87% 30.01 in 10.0 mi WNW 4.6 mph - N/A   Scattered Clouds
12:35 AM 35.6 °F 31.7 °F 32.0 °F 87% 30.01 in 10.0 mi WNW 4.6 mph - N/A   Clear
12:55 AM 35.6 °F 31.7 °F 32.0 °F 87% 30.01 in 10.0 mi WNW 4.6 mph - N/A   Clear
1:15 AM 33.8 °F 29.6 °F 32.0 °F 93% 30.00 in 10.0 mi WNW 4.6 mph - N/A   Clear
1:35 AM 33.8 °F 29.6 °F 32.0 °F 93% 30.00 in 10.0 mi WNW 4.6 mph - N/A   Clear
1:55 AM 35.6 °F 29.9 °F 32.0 °F 87% 30.00 in 10.0 mi NW 6.9 mph - N/A   Clear
2:15 AM 35.6 °F 30.7 °F 32.0 °F 87% 30.00 in 10.0 mi NW 5.8 mph - N/A   Clear
2:55 AM 33.8 °F 28.6 °F 32.0 °F 93% 30.00 in 10.0 mi NW 5.8 mph - N/A   Clear
3:15 AM 33.8 °F 28.6 °F 32.0 °F 93% 29.99 in 10.0 mi WNW 5.8 mph - N/A   Clear
3:35 AM 33.8 °F 28.6 °F 32.0 °F 93% 29.99 in 10.0 mi WNW 5.8 mph - N/A   Clear
3:55 AM 35.6 °F 29.2 °F 32.0 °F 87% 30.00 in 10.0 mi WNW 8.1 mph - N/A   Clear
4:15 AM 35.6 °F 30.7 °F 32.0 °F 87% 30.00 in 10.0 mi WNW 5.8 mph - N/A   Clear
4:35 AM 33.8 °F 28.6 °F 32.0 °F 93% 30.00 in 10.0 mi WNW 5.8 mph - N/A   Clear
4:55 AM 33.8 °F 27.7 °F 32.0 °F 93% 30.00 in 10.0 mi WNW 6.9 mph - N/A   Clear
5:15 AM 33.8 °F 25.8 °F 32.0 °F 93% 30.00 in 10.0 mi WNW 10.4 mph - N/A   Clear
5:35 AM 33.8 °F 25.8 °F 32.0 °F 93% 30.01 in 10.0 mi NW 10.4 mph - N/A   Clear
5:55 AM 33.8 °F 26.4 °F 32.0 °F 93% 30.01 in 10.0 mi NW 9.2 mph - N/A   Clear
6:35 AM 33.8 °F 26.4 °F 32.0 °F 93% 30.01 in 10.0 mi NW 9.2 mph - N/A   Clear
6:55 AM 33.8 °F 27.7 °F 32.0 °F 93% 30.01 in 10.0 mi NW 6.9 mph - N/A   Clear
7:15 AM 33.8 °F 27.0 °F 32.0 °F 93% 30.02 in 10.0 mi WNW 8.1 mph - N/A   Clear
7:35 AM 33.8 °F 26.4 °F 32.0 °F 93% 30.03 in 10.0 mi NW 9.2 mph - N/A   Clear
7:55 AM 35.6 °F 28.6 °F 32.0 °F 87% 30.04 in 10.0 mi NW 9.2 mph - N/A   Clear
8:15 AM 35.6 °F 27.5 °F 30.2 °F 81% 30.04 in 10.0 mi NW 11.5 mph 16.1 mph N/A   Clear
8:35 AM 37.4 °F 31.4 °F 30.2 °F 75% 30.04 in 10.0 mi NNW 8.1 mph - N/A   Clear
8:55 AM 37.4 °F 30.3 °F 30.2 °F 75% 30.04 in 10.0 mi NNW 10.4 mph 17.3 mph N/A   Clear
9:15 AM 41.0 °F 34.3 °F 30.2 °F 65% 30.05 in 10.0 mi NNW 11.5 mph - N/A   Clear
9:35 AM 41.0 °F 32.5 °F 28.4 °F 61% 30.05 in 10.0 mi NW 17.3 mph - N/A   Clear
9:55 AM 42.8 °F 34.5 °F 28.4 °F 57% 30.05 in 10.0 mi NW 18.4 mph 25.3 mph N/A   Scattered Clouds
10:15 AM 42.8 °F 35.1 °F 28.4 °F 57% 30.05 in 10.0 mi WNW 16.1 mph 24.2 mph N/A   Scattered Clouds
10:55 AM 42.8 °F 37.0 °F 28.4 °F 57% 30.05 in 10.0 mi WNW 10.4 mph 17.3 mph N/A   Mostly Cloudy
11:15 AM 42.8 °F 35.1 °F 28.4 °F 57% 30.05 in 10.0 mi WNW 16.1 mph 21.9 mph N/A   Overcast
11:35 AM 42.8 °F 36.2 °F 28.4 °F 57% 30.05 in 10.0 mi NW 12.7 mph 19.6 mph N/A   Overcast
11:55 AM 42.8 °F 35.1 °F 28.4 °F 57% 30.04 in 10.0 mi WNW 16.1 mph 21.9 mph N/A   Overcast
12:15 PM 42.8 °F 35.4 °F 28.4 °F 57% 30.04 in 10.0 mi WNW 15.0 mph 21.9 mph N/A   Overcast
12:35 PM 42.8 °F 35.8 °F 28.4 °F 57% 30.04 in 10.0 mi WNW 13.8 mph 19.6 mph N/A   Overcast
12:55 PM 41.0 °F 33.1 °F 30.2 °F 65% 30.04 in 10.0 mi NW 15.0 mph 24.2 mph N/A   Overcast
1:15 PM 42.8 °F 36.2 °F 30.2 °F 61% 30.03 in 10.0 mi West 12.7 mph 20.7 mph N/A   Overcast
1:35 PM 41.0 °F 33.9 °F 30.2 °F 65% 30.03 in 10.0 mi NW 12.7 mph 21.9 mph N/A   Overcast
1:55 PM 42.8 °F 34.5 °F 30.2 °F 61% 30.02 in 10.0 mi WNW 18.4 mph 21.9 mph N/A   Overcast
2:15 PM 42.8 °F 35.1 °F 30.2 °F 61% 30.01 in 10.0 mi NW 16.1 mph 21.9 mph N/A   Overcast
2:35 PM 42.8 °F 35.8 °F 30.2 °F 61% 30.01 in 10.0 mi WNW 13.8 mph 20.7 mph N/A   Overcast
2:55 PM 41.0 °F 33.9 °F 30.2 °F 65% 30.01 in 10.0 mi NW 12.7 mph 16.1 mph N/A   Overcast
3:15 PM 42.8 °F 35.1 °F 28.4 °F 57% 30.02 in 10.0 mi WNW 16.1 mph 25.3 mph N/A   Overcast
3:35 PM 42.8 °F 36.6 °F 28.4 °F 57% 30.01 in 10.0 mi WNW 11.5 mph - N/A   Overcast
3:55 PM 42.8 °F 35.4 °F 28.4 °F 57% 30.01 in 10.0 mi WNW 15.0 mph 24.2 mph N/A   Overcast
4:15 PM 42.8 °F 35.4 °F 28.4 °F 57% 30.01 in 10.0 mi NW 15.0 mph 24.2 mph N/A   Overcast
4:35 PM 42.8 °F 36.2 °F 28.4 °F 57% 30.01 in 10.0 mi NW 12.7 mph 24.2 mph N/A   Mostly Cloudy
4:55 PM 42.8 °F 34.8 °F 28.4 °F 57% 30.02 in 10.0 mi WNW 17.3 mph - N/A   Scattered Clouds
5:35 PM 42.8 °F 35.4 °F 28.4 °F 57% 30.03 in 10.0 mi NW 15.0 mph 21.9 mph N/A   Scattered Clouds
5:55 PM 42.8 °F 35.8 °F 28.4 °F 57% 30.05 in 10.0 mi WNW 13.8 mph 20.7 mph N/A   Scattered Clouds
6:15 PM 41.0 °F 34.7 °F 28.4 °F 61% 30.06 in 10.0 mi NW 10.4 mph - N/A   Clear
6:35 PM 41.0 °F 38.0 °F 28.4 °F 61% 30.06 in 10.0 mi NNW 4.6 mph - N/A   Clear
6:55 PM 37.4 °F 33.8 °F 28.4 °F 70% 30.06 in 10.0 mi NNW 4.6 mph - N/A   Clear
7:15 PM 37.4 °F 34.9 °F 28.4 °F 70% 30.07 in 10.0 mi NW 3.5 mph - N/A   Clear
7:35 PM 35.6 °F - 28.4 °F 75% 30.08 in 10.0 mi Calm Calm - N/A   Clear
7:55 PM 32.0 °F - 30.2 °F 93% 30.08 in 10.0 mi Calm Calm - N/A   Clear
8:15 PM 32.0 °F - 28.4 °F 87% 30.09 in 10.0 mi Calm Calm - N/A   Clear
8:35 PM 30.2 °F 26.7 °F 30.2 °F 100% 30.09 in 10.0 mi West 3.5 mph - N/A   Clear
8:55 PM 30.2 °F - 28.4 °F 93% 30.10 in 10.0 mi Calm Calm - N/A   Clear
9:15 PM 30.2 °F - 28.4 °F 93% 30.10 in 10.0 mi Calm Calm - N/A   Clear
9:35 PM 30.2 °F - 28.4 °F 93% 30.11 in 10.0 mi Calm Calm - N/A   Clear
9:55 PM 30.2 °F - 28.4 °F 93% 30.12 in 10.0 mi Calm Calm - N/A   Clear
10:15 PM 30.2 °F - 28.4 °F 93% 30.12 in 10.0 mi Calm Calm - N/A   Clear
10:35 PM 28.4 °F - 28.4 °F 100% 30.11 in 10.0 mi Calm Calm - N/A   Clear
10:55 PM 30.2 °F - 28.4 °F 93% 30.12 in 10.0 mi Calm Calm - N/A   Clear
11:15 PM 30.2 °F 26.7 °F 30.2 °F 100% 30.11 in 10.0 mi West 3.5 mph - N/A   Clear
11:35 PM 30.2 °F - 28.4 °F 93% 30.11 in 10.0 mi Calm Calm - N/A   Clear
11:55 PM 30.2 °F 25.4 °F 30.2 °F 100% 30.11 in 10.0 mi West 4.6 mph - N/A   Clear